Hourly Data Report for November 01, 2017

SHEARWATER RCS
NOVA SCOTIA

44°37'47.000" N
63°30'48.000" W
24.00 m
8205092
71264
AAW

Download Data

Hourly Data (November 2017)
Hourly Data Report for November 1, 2017
TIME
LST
Temp Definition
°C
Dew Point Definition
°C
Rel Hum Definition
%
Precip. Amount Definition
mm

Wind Dir Definition
10's deg

Wind Spd Definition
km/h
Visibility Definition
km
Stn Press Definition
kPa
Hmdx Definition


Wind Chill Definition


Weather Definition


00:00 9.6 5.1 74 0.0 25 11   101.67     LegendNANA
01:00 9.2 5.0 75 0.0 24 11   101.74     LegendNANA
02:00 8.2 4.9 80 0.0 22 10   101.85     LegendNANA
03:00 8.7 5.0 77 0.0 24 9   101.95     LegendNANA
04:00 8.3 5.2 81 0.0 26 7   102.03     LegendNANA
05:00 7.8 4.3 78 0.0 26 5   102.17     LegendNANA
06:00 6.7 3.5 80 0.0 34 4   102.26     LegendNANA
07:00 6.7 4.0 83 0.0 31 7   102.34     LegendNANA
08:00 8.0 3.9 75 0.0 33 6   102.42     LegendNANA
09:00 9.7 2.7 62 0.0 30 6   102.52     LegendNANA
10:00 11.3 1.9 52 0.0 29 8   102.59     LegendNANA
11:00 11.6 1.2 49 0.0 30 8   102.62     LegendNANA
12:00 12.7 0.9 44 0.0 27 7   102.57     LegendNANA
13:00 12.5 2.9 52 0.0 15 16   102.59     LegendNANA
14:00 13.0 -0.8 39 0.0 23 17   102.62     LegendNANA
15:00 12.7 1.9 48 0.0 24 15   102.66     LegendNANA
16:00 11.8 2.5 53 0.0 22 13   102.69     LegendNANA
17:00 10.5 3.5 62 0.0 22 10   102.77     LegendNANA
18:00 8.7 3.4 69 0.0 20 4   102.83     LegendNANA
19:00 7.8 4.4 79 0.0 11 2   102.85     LegendNANA
20:00 8.0 4.6 79 0.0 7 2   102.92     LegendNANA
21:00 8.9 3.8 70 0.0 3 9   102.96     LegendNANA
22:00 8.4 3.5 71 0.0 4 8   102.97     LegendNANA
23:00 8.4 2.8 68 0.0 2 9   103.01     LegendNANA

Notes on Data Quality.

Legend

  • E = Estimated
  • M = Missing
  • NA = Not Available*
  • [empty] = Indicates an unobserved value
Date modified: